Weather History for RPLI - February, 2013

Change the Weather History Date:

Sunday, February 10, 2013

  Actual Average Record
Temperature  
Mean Temperature 76 °F -  
Max Temperature 86 °F - - ()
Min Temperature 66 °F - - ()
Cooling Degree Days 11    
Growing Degree Days 26 (Base 50)    
Moisture  
Dew Point 69 °F    
Average Humidity 69    
Maximum Humidity 94    
Minimum Humidity 52    
Precipitation  
Precipitation 0.00 in - - ()
Sea Level Pressure  
Sea Level Pressure 29.89 in    
Wind  
Wind Speed 6 mph ()    
Max Wind Speed 16 mph    
Max Gust Speed -    
Visibility 6.5 miles    
Events      
T = Trace of Precipitation, MM = Missing Value Source: Averaged Metar Reports

Daily Weather History Graph

Daily Weather History Graph

Search for Another Location

Airport or City:

Trip Planner

Search our weather history database for the weather conditions in past years. The results will help you decide how hot, cold, wet, or windy it might be!

Date:

Astronomy

Feb. 10, 2013 Rise Set
Actual Time 6:27 AM PHT 5:56 PM PHT
Civil Twilight 6:05 AM PHT 6:19 PM PHT
Nautical Twilight 5:39 AM PHT 6:44 PM PHT
Astronomical Twilight 5:13 AM PHT 7:10 PM PHT
Moon 6:01 AM PHT (2/10) 5:58 PM PHT (2/10)
Length of Visible Light 12h 13m
Length of Day
11h 28m
Waning Crescent, 0% of the Moon is Illuminated
Feb 10
Waning Crescent
Feb 10
New
Feb 18
First Quarter
Feb 26
Full
Mar 5
Last Quarter

Hourly Weather History & Observations

Time (PHT) Temp. Heat Index Dew Point Humidity Pressure Visibility Wind Dir Wind Speed Gust Speed Precip Events Conditions
2:00 AM 73 °F - 65 °F 71% 29.91 in 7 mi North 4.5 mph - -   Scattered Clouds
5:00 AM 70 °F - 65 °F 79% 29.90 in 7 mi Calm Calm - -   Scattered Clouds
6:00 AM 66.2 °F - 64.4 °F 94% 29.89 in 6.2 mi East 2.3 mph - N/A   Partly Cloudy
7:00 AM 68.0 °F - 64.4 °F 88% 29.92 in 6.2 mi Calm Calm - N/A   Partly Cloudy
8:00 AM 70 °F - 66 °F 83% 29.94 in 6 mi East 4.5 mph - -   Haze
9:00 AM 78.8 °F - 68.0 °F 69% 29.92 in 6.2 mi NE 4.6 mph - N/A   Partly Cloudy
10:00 AM 82.4 °F 86.3 °F 69.8 °F 66% 29.95 in 6.2 mi North 4.6 mph - N/A   Partly Cloudy
11:00 AM 83 °F - 69 °F 54% 29.93 in 7 mi North 8.9 mph - -   Haze
11:00 AM 84.2 °F 87.3 °F 68.0 °F 58% 29.92 in 6.2 mi North 9.2 mph - N/A   Partly Cloudy
12:00 PM 86.0 °F 90.4 °F 69.8 °F 58% 29.89 in 6.2 mi North 13.8 mph - N/A   Partly Cloudy
1:00 PM 86.0 °F 91.8 °F 71.6 °F 62% 29.86 in 6.2 mi North 13.8 mph - N/A   Partly Cloudy
2:00 PM 86 °F - 71 °F 52% 29.87 in 7 mi North 15.7 mph - -   Haze
2:00 PM 86.0 °F 91.8 °F 71.6 °F 62% 29.86 in 6.2 mi North 16.1 mph - N/A   Partly Cloudy
3:00 PM 86.0 °F 91.8 °F 71.6 °F 62% 29.83 in 6.2 mi North 13.8 mph - N/A   Partly Cloudy
4:00 PM 86.0 °F 93.4 °F 73.4 °F 66% 29.83 in 6.2 mi North 11.5 mph - N/A   Partly Cloudy
5:00 PM 83 °F - 72 °F 63% 29.83 in 7 mi North 13.4 mph - -   Haze
5:00 PM 82.4 °F 87.2 °F 71.6 °F 70% 29.83 in 6.2 mi North 13.8 mph - N/A   Partly Cloudy
6:00 PM 80.6 °F 85.4 °F 73.4 °F 79% 29.83 in 6.2 mi North 9.2 mph - N/A   Partly Cloudy
8:00 PM 78 °F - 70 °F 71% 29.89 in 7 mi NE 4.5 mph - -   Partly Cloudy
11:00 PM 75 °F - 70 °F 81% 29.91 in 7 mi NNE 4.5 mph - -   Scattered Clouds